Regional Weather Roundup
Issued by NWS

Home | Current Version | Previous Version | Text Only | Print | Product List | Glossary On
Versions: 1 2 3 4 5 6 7 8 9 10 11 12 13 14 15 16 17 18 19 20 21 22 23 24 25 26 27 28 29 30 31 32 33 34 35 36 37 38 39 40 41 42 43 44 45 46 47 48 49 50
119
ASUS43 KMKX 241010
RWRWI

WISCONSIN REGIONAL WEATHER ROUNDUP
NATIONAL WEATHER SERVICE MILWAUKEE/SULLIVAN WI
500 AM CDT TUE APR 24 2018

NOTE: "FAIR" INDICATES FEW OR NO CLOUDS BELOW 12,000 FEET WITH NO
SIGNIFICANT WEATHER AND/OR OBSTRUCTIONS TO VISIBILITY.

WIZ001-002-006>008-014>016-023>028-241100-
NORTHWEST WISCONSIN

CITY           SKY/WX    TMP DP  RH WIND       PRES   REMARKS
SUPERIOR ARPT  FAIR      38  32  79 NW5       30.15S WCI  34
ASHLAND        FAIR      44  30  57 NE14      30.15R
HAYWARD        FAIR      33  29  85 N5        30.12S WCI  29
SIREN          FAIR      35  31  85 CALM      30.13S
CUMBERLAND     FAIR      32  28  86 CALM      30.12S
RICE LAKE      FAIR      32  32  99 CALM      30.14F
CHETEK         FAIR      32  31  97 CALM      30.12S
LADYSMITH      FAIR      34  30  86 CALM      30.13S
EAU CLAIRE     FAIR      37  33  85 E3        30.11R
MENOMONIE      FAIR      38  34  83 CALM      30.12S
NEW RICHMOND   FAIR      35  32  87 N3        30.13R
OSCEOLA        FAIR      34  31  91 CALM      30.15F
$$

WIZ003>005-009-010-017-018-241100-
NORTH CENTRAL WISCONSIN

CITY           SKY/WX    TMP DP  RH WIND       PRES   REMARKS
MANITOWISH WTR FAIR      29  28  95 CALM      30.10F
ARBOR VITAE    FAIR      32  26  80 CALM      30.10F
WOODRUFF       FAIR      32  26  80 CALM      30.10F
RHINELANDER    FAIR      31  25  78 CALM      30.11F
EAGLE RIVER    FAIR      29  25  83 CALM      30.10F
LAND O LAKES   FAIR      29  25  85 CALM      30.12S
PHILLIPS       FAIR      29  27  92 CALM      30.11S
TOMAHAWK       FAIR      28  24  87 CALM      30.12S
MEDFORD        FAIR      32  29  88 CALM      30.10F
MERRILL        FAIR      29  27  92 CALM      30.12S
$$

WIZ029-030-035-036-043>047-241100-
CENTRAL WISCONSIN

CITY           SKY/WX    TMP DP  RH WIND       PRES   REMARKS
WAUSAU         FAIR      33  29  85 CALM      30.09F
MOSINEE        FAIR      37  28  70 N7        30.11S WCI  32
MARSHFIELD     FAIR      39  28  64 CALM      30.09F
STEVENS POINT  FAIR      30  25  81 CALM      30.11S
WAUPACA        FAIR      34  29  81 NW3       30.10F
WAUTOMA        FAIR      29  27  92 NW3       30.11F
WISC RAPIDS    FAIR      32  26  78 CALM      30.11F
CAMP DOUGLAS   FAIR      30  28  92 CALM      30.10S
$$

WIZ011>013-019>022-031-037>040-048>050-241100-
NORTHEAST WISCONSIN

CITY           SKY/WX    TMP DP  RH WIND       PRES   REMARKS
ANTIGO         FAIR      31  29  91 CALM      30.10F
SHAWANO        FAIR      33  29  86 CALM      30.10F
OCONTO         FAIR      30  29  94 CALM      30.09F
STURGEON BAY   FAIR      43  26  51 NW7       30.09F
GREEN BAY      FAIR      37  33  85 NW6       30.09F WCI  32
MANITOWOC      FAIR      44  30  57 N3        30.08F
APPLETON       FAIR      43  27  52 N6        30.08S
CLINTONVILLE   FAIR      33  28  81 CALM      30.10F
OSHKOSH        FAIR      41  34  76 NW6       30.08F
$$

WIZ032>034-041-042-053>061-241100-
SOUTHWEST WISCONSIN

CITY           SKY/WX    TMP DP  RH WIND       PRES   REMARKS
LA CROSSE      FAIR      41  33  73 SE3       30.11S
SPARTA         FAIR      29  27  91 CALM      30.12S
VIROQUA        FAIR      46  30  54 CALM      30.10S
BOSCOBEL       FAIR      32  29  88 CALM      30.11F
PRAIRIE DU CHI FAIR      37  30  77 CALM      30.11S
PLATTEVILLE    FAIR      41  32  70 NE5       30.09S
$$

WIZ056-057-062-063-064-067-068-241100-
SOUTH CENTRAL WISCONSIN

CITY           SKY/WX    TMP DP  RH WIND       PRES   REMARKS
REEDSBURG      FAIR      35  35 100 CALM      30.11R
BARABOO/DELLS  FAIR      32  28  83 CALM      30.10S
LONE ROCK      FAIR      33  31  92 CALM      30.11S
MINERAL POINT  FAIR      46  32  57 CALM      30.09S
MADISON        FAIR      39  32  76 CALM      30.09S
MIDDLETON      FAIR      37  32  81 CALM      30.10S
WATERTOWN      FAIR      44  32  64 CALM      30.07F
MONROE         FAIR      46  30  53 N6        30.07S
JANESVILLE     FAIR      45  32  61 NW3       30.07S
$$

WIZ051-052-058>065-066-070>072-241100-
SOUTHEAST WISCONSIN

CITY           SKY/WX    TMP DP  RH WIND       PRES   REMARKS
MILWAUKEE      CLOUDY    47  30  51 NE3       30.07F
WAUKESHA       CLOUDY    45  30  57 NW5       30.07F
MILWAUKEE/TIMM MOCLDY    46  27  46 CALM      30.08R
RACINE         CLOUDY    44  32  62 NE3       30.08F
BURLINGTON     CLOUDY    45  33  64 CALM      30.07R
KENOSHA        CLOUDY    46  33  60 CALM      30.07S
FOND DU LAC    FAIR      39  31  72 CALM      30.08F
SHEBOYGAN      FAIR      45  32  60 N5        30.07S
WEST BEND      FAIR      43  32  65 CALM      30.07S
JUNEAU         FAIR      42  31  64 CALM      30.09S
$$

LSZ147-162-241100-
LAKE SUPERIOR

STATION/POSITION TIME  TEMP    WIND        PRES    WAVE
                       AIR SEA DIR/SP/G            HT/PER
                 (UTC) (F)     (DEG/KT/KT) (MB)    (FT/S)
DEVILS ISLAND    1000   40      80/ 10/ 11 1021.6R
SAXON HARBOR     0940   33     180/  1/  2 1020.0R
$$

LMZ867-665-643>646-241100-
LAKE MICHIGAN

STATION/POSITION TIME  TEMP    WIND        PRES    WAVE
                       AIR SEA DIR/SP/G            HT/PER
                 (UTC) (F)     (DEG/KT/KT) (MB)    (FT/S)
NORTHPORT PIER   0940   42                 1019.0F
KEWAUNEE LAKESHO 0942   42     300/  3/  4 1018.0F
SHEBOYGAN LAKESH 1000   43      10/  8/  9 1018.6R
PORT WASHINGTON  0940   49      60/  2/  6 1019.0F
MILWAUKEE LAKESH 0950   40     100/  4/  4   N/A
KENOSHA   LAKESH 1000   42                 1018.3
$$

TC  - TEMPERATURE IN CELSIUS
VSB - VISIBILITY IN STATUTE MILES
WCI - WIND CHILL INDEX
HX  - HEAT INDEX





USA.gov is the U.S. government's official web portal to all federal, state and local government web resources and services.